OK1VCF-8 Weather Reports


time (UTC)temp
F
wind
direction
speed
knots
gust
knots
rain 1hr
in
rain 24hr
in
rain mn
in
humidity
%
barometer
mb
20260503020902 50 0 0.0 0.0 0.00 0.00 0.00 61 1018.1
20260503020145 50 0 0.0 0.0 0.00 0.00 0.00 62 1018.3
20260503015427 50 0 0.0 0.0 0.00 0.00 0.00 62 1018.2
20260503014709 49 0 0.0 0.0 0.00 0.00 0.00 65 1018.2
20260503013952 50 0 0.0 0.0 0.00 0.00 0.00 62 1018.2
20260503013235 50 0 0.0 0.0 0.00 0.00 0.00 60 1018.2
20260503012517 50 0 0.0 0.0 0.00 0.00 0.00 60 1018.2
20260503011801 51 0 0.0 0.0 0.00 0.00 0.00 59 1018.2
20260503011036 52 0 0.0 0.0 0.00 0.00 0.00 56 1018.2
20260503010300 52 0 0.0 0.0 0.00 0.00 0.00 57 1018.4
20260503005505 52 0 0.0 0.0 0.00 0.00 0.00 56 1018.4
20260503004710 52 0 0.0 0.0 0.00 0.00 0.00 56 1018.4
20260503003613 52 0 0.0 0.0 0.00 0.00 0.00 57 1018.5
20260503002815 52 0 0.0 0.0 0.00 0.00 0.00 56 1018.5
20260503002019 52 0 0.0 0.0 0.00 0.00 0.00 56 1018.6
20260503001223 52 0 0.0 0.0 0.00 0.00 0.00 56 1018.6
20260503000426 52 0 0.0 0.0 0.00 0.00 0.00 56 1018.7
20260502235627 53 0 0.0 0.0 0.00 0.00 0.00 56 1018.6
20260502234828 53 0 0.0 0.0 0.00 0.00 0.00 56 1018.8
20260502234037 53 0 0.0 0.0 0.00 0.00 0.00 56 1018.8
20260502233302 53 0 0.0 0.0 0.00 0.00 0.00 56 1018.8
20260502232527 54 0 0.0 0.0 0.00 0.00 0.00 56 1018.8
20260502231804 54 0 0.0 0.0 0.00 0.00 0.00 56 1019.0
20260502231045 54 0 0.0 0.0 0.00 0.00 0.00 55 1019.1
20260502230328 53 0 0.0 0.0 0.00 0.00 0.00 56 1019.0
20260502225610 53 0 0.0 0.0 0.00 0.00 0.00 56 1019.0
20260502224853 53 0 0.0 0.0 0.00 0.00 0.00 56 1019.0
20260502223851 54 0 0.0 0.0 0.00 0.00 0.00 54 1019.1
20260502223134 54 0 0.0 0.0 0.00 0.00 0.00 54 1019.1
20260502222415 55 0 0.0 0.0 0.00 0.00 0.00 54 1019.1
20260502221658 55 0 0.0 0.0 0.00 0.00 0.00 52 1019.0
20260502220939 56 0 0.0 0.0 0.00 0.00 0.00 52 1019.0
20260502220221 56 0 0.0 0.0 0.00 0.00 0.00 52 1019.1
20260502215503 56 0 0.0 0.0 0.00 0.00 0.00 52 1019.2
20260502214745 56 0 0.0 0.0 0.00 0.00 0.00 51 1019.2
20260502214027 56 0 0.0 0.0 0.00 0.00 0.00 50 1019.1
20260502213310 56 0 0.0 0.0 0.00 0.00 0.00 48 1019.2
20260502212552 57 0 0.0 0.0 0.00 0.00 0.00 48 1019.2
20260502211834 57 0 0.0 0.0 0.00 0.00 0.00 47 1019.1
20260502211116 58 0 0.0 0.0 0.00 0.00 0.00 48 1019.2
20260502210357 58 0 0.0 0.0 0.00 0.00 0.00 47 1019.2
20260502205640 58 0 0.0 0.0 0.00 0.00 0.00 46 1019.2
20260502204638 58 0 0.0 0.0 0.00 0.00 0.00 46 1019.2
20260502203919 58 0 0.0 0.0 0.00 0.00 0.00 47 1019.2
20260502203202 59 0 0.0 0.0 0.00 0.00 0.00 46 1019.2
20260502202444 60 0 0.0 0.0 0.00 0.00 0.00 46 1019.4
20260502201726 60 0 0.0 0.0 0.00 0.00 0.00 44 1019.4
20260502201008 60 0 0.0 0.0 0.00 0.00 0.00 44 1019.4
20260502200249 60 0 0.0 0.0 0.00 0.00 0.00 44 1019.4
20260502195530 60 0 0.0 0.0 0.00 0.00 0.00 42 1019.4
20260502194812 61 0 0.0 0.0 0.00 0.00 0.00 43 1019.5
20260502194054 60 0 0.0 0.0 0.00 0.00 0.00 44 1019.4
20260502193335 61 0 0.0 0.0 0.00 0.00 0.00 43 1019.4
20260502192616 62 0 0.0 0.0 0.00 0.00 0.00 42 1019.4
20260502191857 62 0 0.0 0.0 0.00 0.00 0.00 42 1019.4
20260502191139 62 0 0.0 0.0 0.00 0.00 0.00 42 1019.4
20260502190423 62 0 0.0 0.0 0.00 0.00 0.00 40 1019.4
20260502185419 64 0 0.0 0.0 0.00 0.00 0.00 39 1019.3
20260502184701 64 0 0.0 0.0 0.00 0.00 0.00 38 1019.2
20260502183942 65 0 0.0 0.0 0.00 0.00 0.00 38 1019.2
20260502183224 66 0 0.0 0.0 0.00 0.00 0.00 36 1019.3
20260502182507 67 0 0.0 0.0 0.00 0.00 0.00 34 1019.2
20260502181748 68 0 0.0 0.0 0.00 0.00 0.00 34 1019.2
20260502181031 68 0 0.0 0.0 0.00 0.00 0.00 34 1019.2
20260502180312 68 0 0.0 0.0 0.00 0.00 0.00 34 1019.2
20260502170151 73 0 0.0 0.0 0.00 0.00 0.00 27 1019.6
20260502163955 88 0 0.0 0.0 0.00 0.00 0.00 16 1019.6
20260502163237 90 0 0.0 0.0 0.00 0.00 0.00 16 1019.6
20260502162516 90 0 0.0 0.0 0.00 0.00 0.00 16 1019.8
20260502161757 90 0 0.0 0.0 0.00 0.00 0.00 16 1019.8
20260502161037 91 0 0.0 0.0 0.00 0.00 0.00 17 1019.9
20260502160319 90 0 0.0 0.0 0.00 0.00 0.00 17 1020.2
20260502151952 88 0 0.0 0.0 0.00 0.00 0.00 16 1020.6
20260502150948 90 0 0.0 0.0 0.00 0.00 0.00 16 1020.6
20260502150228 86 0 0.0 0.0 0.00 0.00 0.00 18 1020.8
20260502130147 75 0 0.0 0.0 0.00 0.00 0.00 24 1023.1
20260502123750 76 0 0.0 0.0 0.00 0.00 0.00 25 1022.8
20260502122942 76 0 0.0 0.0 0.00 0.00 0.00 24 1022.8
20260502122141 76 0 0.0 0.0 0.00 0.00 0.00 24 1023.0
20260502121342 76 0 0.0 0.0 0.00 0.00 0.00 24 1023.0
20260502120547 74 0 0.0 0.0 0.00 0.00 0.00 25 1023.2
20260502115749 74 0 0.0 0.0 0.00 0.00 0.00 26 1023.2
20260502114949 74 0 0.0 0.0 0.00 0.00 0.00 25 1023.4
20260502114157 73 0 0.0 0.0 0.00 0.00 0.00 24 1023.5
20260502113417 74 0 0.0 0.0 0.00 0.00 0.00 26 1023.6
20260502112644 74 0 0.0 0.0 0.00 0.00 0.00 26 1023.8
20260502111631 73 0 0.0 0.0 0.00 0.00 0.00 27 1023.8
20260502110911 72 0 0.0 0.0 0.00 0.00 0.00 27 1024.0
20260502110152 72 0 0.0 0.0 0.00 0.00 0.00 29 1024.0
20260502105432 71 0 0.0 0.0 0.00 0.00 0.00 30 1024.0
20260502104713 72 0 0.0 0.0 0.00 0.00 0.00 28 1024.2
20260502103953 72 0 0.0 0.0 0.00 0.00 0.00 30 1024.4
20260502103235 72 0 0.0 0.0 0.00 0.00 0.00 30 1024.5
20260502102514 72 0 0.0 0.0 0.00 0.00 0.00 32 1024.4
20260502101756 71 0 0.0 0.0 0.00 0.00 0.00 32 1024.6
20260502101036 70 0 0.0 0.0 0.00 0.00 0.00 30 1024.7
20260502100316 72 0 0.0 0.0 0.00 0.00 0.00 31 1024.7
20260502090915 68 0 0.0 0.0 0.00 0.00 0.00 40 1025.4
20260502090156 68 0 0.0 0.0 0.00 0.00 0.00 42 1025.4
20260502070859 57 0 0.0 0.0 0.00 0.00 0.00 56 1026.4
20260502070117 56 0 0.0 0.0 0.00 0.00 0.00 57 1026.4
20260502065337 56 0 0.0 0.0 0.00 0.00 0.00 58 1026.4
20260502064557 54 0 0.0 0.0 0.00 0.00 0.00 60 1026.5
20260502063815 54 0 0.0 0.0 0.00 0.00 0.00 62 1026.5
20260502063035 54 0 0.0 0.0 0.00 0.00 0.00 62 1026.6
20260502062257 52 0 0.0 0.0 0.00 0.00 0.00 64 1026.6
20260502061517 52 0 0.0 0.0 0.00 0.00 0.00 65 1026.5
20260502060740 51 0 0.0 0.0 0.00 0.00 0.00 66 1026.6
20260502060000 50 0 0.0 0.0 0.00 0.00 0.00 68 1026.6
20260502055231 50 0 0.0 0.0 0.00 0.00 0.00 68 1026.5
20260502054509 49 0 0.0 0.0 0.00 0.00 0.00 70 1026.5
20260502053508 49 0 0.0 0.0 0.00 0.00 0.00 70 1026.5
20260502051326 47 0 0.0 0.0 0.00 0.00 0.00 74 1026.4
20260502050609 46 0 0.0 0.0 0.00 0.00 0.00 74 1026.5
20260502045849 46 0 0.0 0.0 0.00 0.00 0.00 76 1026.5
20260502045130 46 0 0.0 0.0 0.00 0.00 0.00 76 1026.4
20260502044412 46 0 0.0 0.0 0.00 0.00 0.00 76 1026.4
20260502043653 46 0 0.0 0.0 0.00 0.00 0.00 76 1026.4
20260502042935 46 0 0.0 0.0 0.00 0.00 0.00 76 1026.4
20260502042218 47 0 0.0 0.0 0.00 0.00 0.00 72 1026.3
20260502041458 51 0 0.0 0.0 0.00 0.00 0.00 66 1026.4
20260502040741 50 0 0.0 0.0 0.00 0.00 0.00 70 1026.4
20260502040023 46 0 0.0 0.0 0.00 0.00 0.00 74 1026.5
20260502035307 44 0 0.0 0.0 0.00 0.00 0.00 79 1026.3
20260502034305 42 0 0.0 0.0 0.00 0.00 0.00 83 1026.4
20260502033547 42 0 0.0 0.0 0.00 0.00 0.00 82 1026.4
20260502032829 42 0 0.0 0.0 0.00 0.00 0.00 82 1026.4
20260502032111 44 0 0.0 0.0 0.00 0.00 0.00 80 1026.4
20260502031353 44 0 0.0 0.0 0.00 0.00 0.00 80 1026.4
20260502030637 44 0 0.0 0.0 0.00 0.00 0.00 80 1026.4
20260502025918 44 0 0.0 0.0 0.00 0.00 0.00 82 1026.3
20260502025159 43 0 0.0 0.0 0.00 0.00 0.00 81 1026.3
20260502024442 44 0 0.0 0.0 0.00 0.00 0.00 80 1026.4
20260502023724 44 0 0.0 0.0 0.00 0.00 0.00 80 1026.4
20260502023007 44 0 0.0 0.0 0.00 0.00 0.00 79 1026.4
20260502022251 44 0 0.0 0.0 0.00 0.00 0.00 79 1026.5